User: anonymous   Login
Location: Unspecified
(0.0000°N, 0.0000°E)
Time: 00:05:31
(UTC+00:00)
Language:

AO-85 - Orbit

View from above orbital plane
View from above orbital plane
View from above satellite
View from above satellite

Ground track
Ground track

The orbit data is extracted from the following two-line orbital elements,

1 40967U 15058D   17165.39032362  .00000065  00000-0  26957-4 0 05151
2 40967 064.7768 227.3622 0172192 078.9849 283.0556 14.75426604076705
Epoch (UTC): 14 June 2017 09:22:03
Eccentricity: 0.0172192
inclination: 64.7768°
perigee height: 523 km
apogee height: 765 km
right ascension of ascending node: 227.3622°
argument of perigee: 78.9849°
revolutions per day: 14.75426604
mean anomaly at epoch: 283.0556°
orbit number at epoch: 7670

The dashed part of the orbit path shows where the satellite is in the earth's shadow,  

DLR